Miscellaneous Local Product
Issued by NWS North Platte, NE

Home | Current Version | Previous Version | Text Only | Print | Product List | Glossary On
Versions: 1 2 3 4 5 6 7 8 9 10 11 12 13 14 15 16 17 18 19 20 21 22 23 24 25 26 27 28 29 30 31 32 33 34 35 36 37 38 39 40 41 42 43 44 45 46 47 48 49 50
000
AXUS43 KLBF 280810
MISLBF


WESTERN AND NORTH CENTRAL NEBRASKA HOURLY WEATHER ROUNDUP
NATIONAL WEATHER SERVICE NORTH PLATTE NE
300 AM CDT SAT MAY 28 2016

NOTE: "FAIR" INDICATES FEW OR NO CLOUDS BELOW 12,000 FEET WITH NO
SIGNIFICANT WEATHER AND/OR OBSTRUCTIONS TO VISIBILITY.

NOTE: STATIONS NOT REPORTING VARIABLES SUCH AS SKY/WEATHER OR
PRESSURE ARE PROVIDED BY RAWS AND APRS NETWORKS AND ARE NOT UNDER
NATIONAL WEATHER SERVICE QUALITY CONTROL.

...OBSERVATIONS IN AND NEAR THE EASTERN PANHANDLE OF NEBRASKA...

CITY           SKY/WX    TMP DP  RH WIND       PRES   REMARKS
PINE RIDGE     CLEAR     43  40  89 CALM      29.86F
CHADRON        PTCLDY    44  42  93 W6        29.87F
ALLIANCE       CLOUDY    43  42  97 W6        29.88F
SIDNEY         CLEAR     42  41  96 NW8       29.91F
CRESCENT LAKE    N/A     48  46  94 N6          N/A
BIG SPRINGS      N/A     50  48  93 W3          N/A
$$

...OBSERVATIONS IN NORTHERN NEBRASKA AND FAR SOUTHERN SOUTH DAKOTA...

CITY           SKY/WX    TMP DP  RH WIND       PRES   REMARKS
WINNER         MOCLDY    58  54  86 NW5       29.80R
VALENTINE      MOCLDY    53  50  89 W10       29.82S
THEDFORD       MOCLDY    54  51  90 NW5       29.83S
AINSWORTH      MOCLDY    55  53  91 N5        29.81S
O`NEILL        RAIN      58  56  95 W5        29.78R
ORD            LGT RAIN  57  55  93 SW10      29.77S
BROKEN BOW     LGT RAIN  56  54  93 SW5       29.80S
BUTTE            N/A     58  56  92 NW8         N/A
CHAMBERS         N/A     57  55  94 CALM        N/A
EWING            N/A     58  56  95 W7          N/A
$$

...OBSERVATIONS IN SOUTHWEST NEBRASKA AND FAR NORTHEAST COLORADO...

CITY           SKY/WX    TMP DP  RH WIND       PRES   REMARKS
WRAY           FAIR      46  46 100 NW7       29.89S
HOLYOKE        FAIR      52  46  82 NW8       29.89S
IMPERIAL       CLEAR     50  47  89 NW12      29.86R
OGALLALA       CLOUDY    50  47  88 NW8       29.87R
NORTH PLATTE   MOCLDY    54  52  93 NE5       29.83S
MCCOOK         LGT RAIN  55  53  93 N6        29.82R FOG
LEXINGTON      LGT RAIN  55  53  93 CALM      29.80R
PAXTON           N/A     53  49  88 CALM        N/A
STAPLETON        N/A     55  51  87 CALM        N/A
GOTHENBURG       N/A     56  52  87 E5          N/A
CALLAWAY         N/A     54  53  96 CALM        N/A
$$

...OBSERVATIONS IN CENTRAL LINCOLN COUNTY AREA...

CITY           SKY/WX    TMP DP  RH WIND       PRES   REMARKS
N.P. AIRPORT   MOCLDY    54  52  93 NE5       29.83S
N.P. DOWNTOWN    N/A     56  52  86 CALM        N/A
N.P. SOUTHEAST   N/A     56  51  83 CALM        N/A
N.P. HILLCREST   N/A     55  51  87 E3          N/A
$$

...SOME OBSERVATIONS FROM AROUND THE REGION...

CITY           SKY/WX    TMP DP  RH WIND       PRES   REMARKS
DENVER         PTCLDY    45  39  79 SW10      29.94S
LARAMIE        CLEAR     34  32  92 S5        30.00S WCI  30
CHEYENNE       CLEAR     46  36  68 NW6       29.96R
SCOTTSBLUFF    CLEAR     44  41  89 CALM      29.90F
RAPID CITY     CLEAR     44  42  93 NW7       29.86S
BISMARCK       MOCLDY    55  51  86 NE3       29.84S
PIERRE         CLOUDY    58  53  84 NW8       29.79S
SIOUX FALLS    LGT RAIN  63  58  83 NE6       29.72F
OMAHA          CLOUDY    62  59  90 SE8       29.69F
GRAND ISLAND   LGT RAIN  57  55  93 SW9       29.78S
KANSAS CITY    PTCLDY    57  56  96 S5        29.75R
WICHITA        PTCLDY    62  57  83 SW12      29.70R
OKLAHOMA CITY  PTCLDY    62  61  96 SW5       29.81R
DALLAS         CLOUDY    68  64  87 SE12      29.82S
AMARILLO       CLEAR     51  42  71 N6        29.93R
DODGE CITY     CLEAR     53  50  89 NW10      29.83R
HAYS           CLOUDY    55  48  76 SW6       29.78R
GOODLAND       CLEAR     47  45  93 W12       29.88R
$$




USA.gov is the U.S. government's official web portal to all federal, state and local government web resources and services.